Location: Unspecified
(0.0000°N, 0.0000°E)
Time: 14:00:13
(UTC+00:00)

STARLINK-11604 [DTC] - Visible Passes

Search period start: 15 June 2025 00:00
Search period end: 25 June 2025 00:00
Orbit: 355 x 357 km, 43.0° (Epoch: 15 June)

Date Brightness Start Highest point End Pass type
(mag) Time Alt. Az. Time Alt. Az. Time Alt. Az.
20 Jun ? 18:59:56 10° NNE 19:00:55 11° NE 19:01:18 11° NE visible
21 Jun ? 19:23:40 10° NW 19:26:14 60° N 19:26:14 60° N visible
22 Jun ? 19:49:57 10° W 19:50:55 14° WSW 19:50:55 14° WSW visible
23 Jun ? 18:38:21 10° NW 18:41:13 79° SW 18:43:51 12° SE visible
24 Jun ? 19:04:44 10° WSW 19:06:03 12° SW 19:07:22 10° SSW visible
